sat.trackr.live / text

‹ back to catalog

STARLINK-31838

NORAD 60130 · 2024-118T

PAYLOAD ACTIVE UNKNOWN

§ Identity

Operator
Country
US
Launch date
2024-06-24
Launch site
AFWTR
Launch vehicle
Mass (kg)
RCS (m²)

Purposes: comms

External: N2YO · Heavens-Above · Gunter

§ Orbital elements

Epoch: 2026-09-21T05:14:37.153248Z

Period
94.01 min
Inclination
53.1557°
Eccentricity
0.0000680
Mean motion
15.31713619 rev/d
Perigee alt
470.2 km
Apogee alt
471.2 km
Semi-major
6,848.8 km
B*
5.8048e-4
RAAN
197.0255°
Arg perigee
84.1807°
Mean anomaly
275.9272°
Rev number
12,565

§ Raw data

STARLINK-318381 60130U 24118T   26264.21848557  .00017698  00000+0  58048-3 0  99942 60130  53.1557 197.0255 0000680  84.1807 275.9272 15.31713619125659

JSON: /api/v1/satellites/60130 · /tle

For live sub-satellite position, see the globe view (requires WebGL).

§ Visibility from observer

Set your observer location to see the next 7 days of passes ≥ 10°. The values pass through the URL so the page stays shareable.

No JS? Fill the form by hand. The geolocation button needs JavaScript.